Regional Weather Roundup
Issued by NWS

Home | Current Version | Previous Version | Graphics & Text | Print | Product List | Glossary On
Versions: 1 2 3 4 5 6 7 8 9 10 11 12 13 14 15 16 17 18 19 20 21 22 23 24 25 26 27
000
ASUS45 KSLC 250710
RWRUT

UTAH REGIONAL WEATHER ROUNDUP
NATIONAL WEATHER SERVICE SALT LAKE CITY UT
100 AM MDT SUN SEP 25 2016

UTZ001>011-023>025-250800-

NORTHERN UTAH

CITY           SKY/WX    TMP DP  RH WIND       PRES   REMARKS
BRIGHAM CITY     N/A     49  44  84 NW5       30.41R
HILL AFB       CLEAR     48  39  70 E9        30.41R
LOGAN          CLEAR     43  41  93 NE5       30.41R
OGDEN          CLEAR     48  40  73 SE5       30.40R
PROVO AIRPORT  CLEAR     45  40  82 E7        30.42R
SALT LAKE CITY CLEAR     50  43  77 S6        30.40R
VERNAL         PTCLDY    50  33  52 CALM      30.40R
WENDOVER       CLEAR     52  37  58 CALM      30.41R
HEBER CITY     CLEAR     36  34  93 CALM      30.43S
WEST JORDAN    CLEAR     46  41  82 W5        30.41S

$$

UTZ012>022-026-027-250800-

SOUTHERN/CENTRAL UTAH

CITY           SKY/WX    TMP DP  RH WIND       PRES   REMARKS
BLANDING       PTCLDY    46  37  69 N6        30.41R
BRYCE CANYON   CLEAR     41  30  65 N15       30.43R
CEDAR CITY     CLEAR     50  31  48 N7        30.36S
DELTA          CLEAR     45  41  87 N6        30.40S
MILFORD        CLEAR     50  38  63 N9        30.38R
MOAB/CYNLANDS  CLEAR     53  43  68 E5        30.32S
PRICE          CLEAR     44  33  65 N5        30.39R
ST GEORGE      SUNNY     70  34  26 NE23G32   30.24R

$$

REGIONAL REPORTS     COLORADO/ARIZONA

CITY           SKY/WX    TMP DP  RH WIND       PRES   REMARKS
CRAIG, CO      CLOUDY    38  35  89 CALM      30.43R FOG
GRAND JUNCTION MOCLDY    51  40  65 N8        30.37R
RIFLE          CLOUDY    49  45  86 W3        30.40S
MONTROSE       CLOUDY    49  41  74 CALM      30.40R
CORTEZ         CLEAR     45  36  70 E7        30.31R
PAGE, AZ       CLEAR     63  34  33 N5        30.28R
GRAND CANYON   CLEAR     46  37  71 NE9       30.35R
KINGMAN        CLEAR     57  32  38 E8        30.17S
FLAGSTAFF      CLEAR     49  30  48 NE18G24   30.32R

$$

REGIONAL REPORTS    NEVADA/IDAHO/WYOMING

CITY           SKY/WX    TMP DP  RH WIND       PRES   REMARKS
LAS VEGAS, NV  CLEAR     74  28  18 N9        30.13R
ELY            CLEAR     34  30  85 SW3       30.45R
ELKO           CLEAR     43  34  70 CALM      30.44R
POCATELLO, ID  CLEAR     47  33  58 SW8       30.42R
BURLEY         CLEAR     46  35  65 SW9       30.39R
EVANSTON, WY   CLOUDY    40  31  70 SE6       30.47S
ROCK SPRINGS   CLEAR     37  34  89 W8        30.44R WCI  31

$$




USA.gov is the U.S. government's official web portal to all federal, state and local government web resources and services.